ORBCOMM FM104 [-]

Last updated on Fri Dec 29 2023 00:02:54 GMT+0000 (Greenwich Mean Time)

1 40090U 14040E 23362.18840026 .00001155 00000+0 30551-3 0 9995 2 40090 47.0065 56.8243 0018156 273.8445 86.0363 14.54733868502483
UTC large
Height (km)
Speed (km/s)
/
Latitude / Longitude
Inclination (degrees)
Orbital Period (minutes)
Azimuth
Elevation
Range (km)
Doppler Factor

Next 0 passes for location: London (51.5072 / 0.1276)

Sorry there are no passes over London.